When you browse on this site, cookies collect data to enhance your experience and personalize the content and advertising you see.
Visit our Privacy Policy to learn more. By continuing to use the site, you agree to this use of cookies and data.
  • în România
  • Lista ţărilor
  • Pe 7 zile
  • Temperatura apei
  • Meteo pe hartă
  • Widget-uri
  • user-avatar
    Intrare

    Meteo pe oră la Lunsar

    Astăzi, 3 Iunie, Miercuri

    Timp Temperatura Precipitaţii Vânt Presiune Umiditate
    00:00 +27°C° 0 mm 1 m/s 754 mmHg 94%
    01:00 +27°C° 0 mm 1 m/s 753 mmHg 95%
    02:00 +27°C° 0 mm 1 m/s 752 mmHg 96%
    03:00 +24°C° 0 mm 0 m/s 753 mmHg 97%
    04:00 +24°C° 0 mm 0 m/s 753 mmHg 97%
    05:00 +24°C° 0 mm 0 m/s 753 mmHg 98%
    06:00 +27°C° 0 mm 1 m/s 753 mmHg 93%
    07:00 +29°C° 0 mm 1 m/s 753 mmHg 88%
    08:00 +30°C° 0 mm 1 m/s 754 mmHg 83%
    09:00 +31°C° 0 mm 1 m/s 754 mmHg 77%
    10:00 +32°C° 0 mm 1 m/s 754 mmHg 70%
    11:00 +33°C° 0 mm 1 m/s 754 mmHg 64%
    12:00 +33°C° 0.7 mm 1 m/s 753 mmHg 66%
    13:00 +33°C° 0.7 mm 1 m/s 752 mmHg 68%
    14:00 +31°C° 0.7 mm 0 m/s 751 mmHg 70%
    15:00 +32°C° 1.2 mm 1 m/s 752 mmHg 75%
    16:00 +31°C° 1.2 mm 1 m/s 752 mmHg 81%
    17:00 +30°C° 1.2 mm 1 m/s 752 mmHg 86%
    18:00 +29°C° 0.8 mm 1 m/s 753 mmHg 88%
    19:00 +29°C° 0.8 mm 1 m/s 753 mmHg 89%
    20:00 +26°C° 0.8 mm 0 m/s 753 mmHg 91%
    21:00 +25°C° 0.1 mm 0 m/s 753 mmHg 92%
    22:00 +25°C° 0.1 mm 0 m/s 753 mmHg 93%
    23:00 +25°C° 0.1 mm 0 m/s 753 mmHg 94%

    Mâine, 4 Iunie, Joi

    Timp Temperatura Precipitaţii Vânt Presiune Umiditate
    00:00 +25°C° 0 mm 0 m/s 753 mmHg 94%
    01:00 +25°C° 0 mm 0 m/s 753 mmHg 94%
    02:00 +24°C° 0 mm 0 m/s 752 mmHg 95%
    03:00 +24°C° 0 mm 0 m/s 753 mmHg 95%
    04:00 +24°C° 0 mm 0 m/s 753 mmHg 95%
    05:00 +24°C° 0 mm 0 m/s 753 mmHg 96%
    06:00 +27°C° 0 mm 1 m/s 753 mmHg 91%
    07:00 +28°C° 0 mm 1 m/s 754 mmHg 87%
    08:00 +29°C° 0 mm 1 m/s 754 mmHg 82%
    09:00 +31°C° 0 mm 1 m/s 754 mmHg 74%
    10:00 +33°C° 0 mm 1 m/s 754 mmHg 65%
    11:00 +34°C° 0 mm 1 m/s 754 mmHg 56%
    12:00 +35°C° 0 mm 1 m/s 753 mmHg 54%
    13:00 +35°C° 0 mm 1 m/s 753 mmHg 53%
    14:00 +36°C° 0 mm 1 m/s 752 mmHg 51%
    15:00 +34°C° 0.9 mm 1 m/s 752 mmHg 61%
    16:00 +32°C° 0.9 mm 2 m/s 752 mmHg 71%
    17:00 +30°C° 0.9 mm 2 m/s 752 mmHg 81%
    18:00 +29°C° 0.2 mm 2 m/s 753 mmHg 84%
    19:00 +28°C° 0.2 mm 1 m/s 753 mmHg 88%
    20:00 +27°C° 0.2 mm 1 m/s 754 mmHg 91%
    21:00 +27°C° 0 mm 1 m/s 754 mmHg 92%
    22:00 +26°C° 0 mm 1 m/s 754 mmHg 92%
    23:00 +24°C° 0 mm 0 m/s 754 mmHg 93%

    Poimâine, 5 Iunie, Vineri

    Timp Temperatura Precipitaţii Vânt Presiune Umiditate
    00:00 +24°C° 0 mm 0 m/s 753 mmHg 93%
    01:00 +24°C° 0 mm 0 m/s 753 mmHg 94%
    02:00 +24°C° 0 mm 0 m/s 753 mmHg 94%
    03:00 +24°C° 0 mm 0 m/s 753 mmHg 95%
    04:00 +23°C° 0 mm 0 m/s 753 mmHg 95%
    05:00 +23°C° 0 mm 0 m/s 753 mmHg 96%
    06:00 +25°C° 0 mm 0 m/s 753 mmHg 91%
    07:00 +26°C° 0 mm 0 m/s 754 mmHg 86%
    08:00 +27°C° 0 mm 0 m/s 754 mmHg 81%
    09:00 +29°C° 0 mm 0 m/s 754 mmHg 72%
    10:00 +31°C° 0 mm 0 m/s 754 mmHg 64%
    11:00 +33°C° 0 mm 0 m/s 754 mmHg 55%
    12:00 +36°C° 0 mm 1 m/s 753 mmHg 53%
    13:00 +36°C° 0 mm 1 m/s 753 mmHg 50%
    14:00 +37°C° 0 mm 1 m/s 752 mmHg 48%
    15:00 +35°C° 0 mm 1 m/s 752 mmHg 55%
    16:00 +34°C° 0 mm 2 m/s 752 mmHg 61%
    17:00 +32°C° 0 mm 2 m/s 752 mmHg 67%
    18:00 +30°C° 0 mm 2 m/s 752 mmHg 72%
    19:00 +29°C° 0 mm 2 m/s 753 mmHg 77%
    20:00 +28°C° 0 mm 1 m/s 753 mmHg 82%
    21:00 +27°C° 0.1 mm 1 m/s 753 mmHg 84%
    22:00 +27°C° 0.1 mm 1 m/s 753 mmHg 86%
    23:00 +24°C° 0.1 mm 0 m/s 754 mmHg 88%

    6 Iunie, Sâmbătă

    Timp Temperatura Precipitaţii Vânt Presiune Umiditate
    00:00 +24°C° 0.4 mm 0 m/s 754 mmHg 89%
    01:00 +24°C° 0.4 mm 0 m/s 753 mmHg 91%
    02:00 +24°C° 0.4 mm 0 m/s 753 mmHg 93%
    03:00 +24°C° 0 mm 0 m/s 753 mmHg 92%
    04:00 +24°C° 0 mm 0 m/s 753 mmHg 92%
    05:00 +24°C° 0 mm 0 m/s 753 mmHg 92%
    06:00 +25°C° 0 mm 0 m/s 754 mmHg 87%
    07:00 +27°C° 0 mm 0 m/s 754 mmHg 83%
    08:00 +28°C° 0 mm 0 m/s 755 mmHg 78%
    09:00 +29°C° 0 mm 0 m/s 755 mmHg 72%
    10:00 +31°C° 0 mm 0 m/s 754 mmHg 65%
    11:00 +33°C° 0 mm 0 m/s 754 mmHg 59%
    12:00 +34°C° 0.3 mm 1 m/s 754 mmHg 61%
    13:00 +34°C° 0.3 mm 1 m/s 753 mmHg 63%
    14:00 +34°C° 0.3 mm 2 m/s 752 mmHg 65%
    15:00 +32°C° 0.5 mm 2 m/s 752 mmHg 70%
    16:00 +31°C° 0.5 mm 2 m/s 752 mmHg 75%
    17:00 +30°C° 0.5 mm 2 m/s 752 mmHg 80%
    18:00 +29°C° 0.2 mm 2 m/s 753 mmHg 83%
    19:00 +28°C° 0.2 mm 1 m/s 753 mmHg 87%
    20:00 +27°C° 0.2 mm 1 m/s 754 mmHg 90%
    21:00 +27°C° 0.3 mm 1 m/s 754 mmHg 91%
    22:00 +27°C° 0.3 mm 1 m/s 754 mmHg 92%
    23:00 +27°C° 0.3 mm 1 m/s 755 mmHg 92%

    7 Iunie, Duminică

    Timp Temperatura Precipitaţii Vânt Presiune Umiditate
    00:00 +27°C° 1.3 mm 1 m/s 754 mmHg 94%
    01:00 +26°C° 1.3 mm 1 m/s 754 mmHg 95%
    02:00 +26°C° 1.3 mm 1 m/s 753 mmHg 96%
    03:00 +26°C° 0.1 mm 1 m/s 753 mmHg 97%
    04:00 +26°C° 0.1 mm 1 m/s 753 mmHg 97%
    05:00 +24°C° 0.1 mm 0 m/s 753 mmHg 97%
    06:00 +25°C° 0 mm 0 m/s 754 mmHg 93%
    07:00 +26°C° 0 mm 0 m/s 754 mmHg 90%
    08:00 +27°C° 0 mm 0 m/s 754 mmHg 86%
    09:00 +28°C° 0 mm 0 m/s 755 mmHg 79%
    10:00 +30°C° 0 mm 0 m/s 755 mmHg 72%
    11:00 +31°C° 0 mm 0 m/s 755 mmHg 65%
    12:00 +33°C° 0.1 mm 1 m/s 754 mmHg 65%
    13:00 +33°C° 0.1 mm 1 m/s 754 mmHg 65%
    14:00 +33°C° 0.1 mm 1 m/s 753 mmHg 65%
    15:00 +32°C° 0.7 mm 1 m/s 753 mmHg 71%
    16:00 +31°C° 0.7 mm 1 m/s 753 mmHg 77%
    17:00 +30°C° 0.7 mm 2 m/s 753 mmHg 84%
    18:00 +29°C° 0.1 mm 1 m/s 753 mmHg 87%
    19:00 +28°C° 0.1 mm 1 m/s 754 mmHg 89%
    20:00 +27°C° 0.1 mm 1 m/s 754 mmHg 92%
    21:00 +27°C° 0.3 mm 1 m/s 754 mmHg 93%
    22:00 +27°C° 0.3 mm 1 m/s 754 mmHg 93%
    23:00 +27°C° 0.3 mm 1 m/s 755 mmHg 93%

    8 Iunie, Luni

    Timp Temperatura Precipitaţii Vânt Presiune Umiditate
    00:00 +27°C° 0 mm 1 m/s 754 mmHg 94%
    01:00 +26°C° 0 mm 1 m/s 754 mmHg 95%
    02:00 +26°C° 0 mm 1 m/s 753 mmHg 96%
    03:00 +26°C° 0.1 mm 1 m/s 753 mmHg 96%
    04:00 +24°C° 0.1 mm 0 m/s 753 mmHg 97%
    05:00 +24°C° 0.1 mm 0 m/s 754 mmHg 97%
    06:00 +27°C° 1 mm 1 m/s 754 mmHg 94%
    07:00 +28°C° 1 mm 1 m/s 754 mmHg 91%
    08:00 +29°C° 1 mm 1 m/s 754 mmHg 87%
    09:00 +30°C° 0.2 mm 1 m/s 754 mmHg 78%
    10:00 +32°C° 0.2 mm 1 m/s 753 mmHg 69%
    11:00 +34°C° 0.2 mm 1 m/s 753 mmHg 60%
    12:00 +34°C° 0 mm 1 m/s 753 mmHg 58%
    13:00 +35°C° 0 mm 1 m/s 752 mmHg 55%
    14:00 +35°C° 0 mm 1 m/s 752 mmHg 53%
    15:00 +34°C° 2.1 mm 2 m/s 752 mmHg 65%
    16:00 +31°C° 2.1 mm 2 m/s 752 mmHg 76%
    17:00 +29°C° 2.1 mm 2 m/s 752 mmHg 88%
    18:00 +28°C° 1.3 mm 2 m/s 753 mmHg 90%
    19:00 +27°C° 1.3 mm 1 m/s 753 mmHg 92%
    20:00 +27°C° 1.3 mm 1 m/s 754 mmHg 95%
    21:00 +27°C° 0.3 mm 1 m/s 754 mmHg 95%
    22:00 +25°C° 0.3 mm 0 m/s 754 mmHg 95%
    23:00 +25°C° 0.3 mm 0 m/s 754 mmHg 95%
    Arată mai mult